Flag Weather past 2 weeks in Laatzen, Lower Saxony, Germany

Now
52 °F

Fog.


Feels Like: 52 °F
Forecast: 50 / 64 °F
Wind: 2 mph from Southeast

Location: Hannover

Current Time: Oct 31, 2014 at 5:04:48 AM

Latest Report: Oct 31, 2014 at 3:00 AM


Visibility: 4 mi

Pressure: 30.23 "Hg

Humidity: 94%

Dew point: 51 °F

Location of LaatzenLocation

Historic Weather in Laatzen — Graph

°F

Laatzen temperature yesterday

Maximum temperature yesterday: 53 °F (at 3:00 PM)
Minimum temperature yesterday: 47 °F (at 5:00 AM)
Average temperature yesterday: 50 °F

Past Weeks' High & Low Weather Summary

 TemperatureHumidityPressure
High73 °F (Oct 19, 3:00 PM)99% (Oct 18, 12:00 AM)30.30 "Hg (Oct 18, 12:00 AM)
Low33 °F (Oct 29, 6:00 AM)62% (Oct 19, 3:00 PM)29.44 "Hg (Oct 21, 6:00 PM)
Average53 °F85%30.03 "Hg
* Reported Oct 16 4:00 AM — Oct 31 3:00 AM, Laatzen, Weather by CustomWeather, © 2014

Note: Actual official high and low records may vary slightly from our data, if they occured in-between our weather recording intervals... More about our weather records

Advertising

Laatzen weather history for previous 24 hours

 ConditionsComfort  
Time TempWeatherWind HumidityBarometerVisibility
3:00 AM
Oct 31
52 °FFog.2 mph94%30.23 "Hg4 mi
2:00 AM52 °FFog.3 mph94%30.23 "Hg4 mi
1:00 AM53 °FOvercast.3 mph92%30.24 "Hg4 mi
12:00 AM53 °FFog.2 mph92%30.24 "Hg3 mi
11:00 PM
Oct 30
52 °FFog.2 mph94%30.25 "Hg4 mi
9:00 PM52 °FFog.2 mph94%30.26 "Hg4 mi
8:00 PM52 °FOvercast.3 mph93%30.26 "Hg5 mi
7:00 PM52 °FLow clouds.2 mph92%30.26 "Hg5 mi
6:00 PM52 °FLow clouds.2 mph93%30.27 "Hg5 mi
5:00 PM52 °FCool.2 mph91%30.25 "HgN/A
3:00 PM53 °FLow clouds.2 mph88%30.25 "Hg6 mi
2:00 PM53 °FLow clouds.2 mph87%30.26 "Hg6 mi
1:00 PM52 °FLow clouds.2 mph89%30.27 "Hg5 mi
12:00 PM51 °FLow clouds.2 mph91%30.26 "Hg5 mi
11:00 AM50 °FLow clouds.2 mph92%30.26 "Hg7 mi
9:00 AM48 °FFog.2 mph95%30.24 "Hg4 mi
8:00 AM48 °FFog.2 mph97%30.24 "Hg4 mi
7:00 AM47 °FFog.1 mph97%30.23 "Hg4 mi
6:00 AM47 °FFog.1 mph98%30.21 "Hg4 mi
5:00 AM47 °FFog.2 mph98%30.20 "Hg3 mi
Weather by CustomWeather, © 2014

See weather overviewHow to use our weather pages